| time (UTC) | temp F | wind direction | speed MPH | gust MPH | rain 1hr in | rain 24hr in | rain mn in | humidity % | barometer mb |
| 20260503032725 | 46 | 77 | 2.0 | 5.0 | 0.00 | 0.00 | 0.00 | 70 | 1013.3 |
| 20260503032226 | 46 | 115 | 1.0 | 4.0 | 0.00 | 0.00 | 0.00 | 72 | 1013.2 |
| 20260503031738 | 46 | 41 | 3.0 | 4.0 | 0.00 | 0.00 | 0.00 | 72 | 1013.3 |
| 20260503031225 | 46 | 55 | 3.0 | 3.0 | 0.00 | 0.00 | 0.00 | 73 | 1013.2 |
| 20260503030726 | 46 | 34 | 1.0 | 2.0 | 0.00 | 0.00 | 0.00 | 77 | 1013.4 |
| 20260503030225 | 46 | 20 | 1.0 | 2.0 | 0.00 | 0.00 | 0.00 | 77 | 1013.3 |
| 20260503025239 | 46 | 311 | 0.0 | 2.0 | 0.00 | 0.00 | 0.00 | 76 | 1013.6 |
| 20260503024225 | 46 | 92 | 1.0 | 2.0 | 0.00 | 0.00 | 0.00 | 75 | 1013.5 |
| 20260503022726 | 46 | 312 | 1.0 | 3.0 | 0.00 | 0.00 | 0.00 | 77 | 1013.5 |
| 20260503022227 | 46 | 155 | 0.0 | 3.0 | 0.00 | 0.00 | 0.00 | 77 | 1013.5 |
| 20260503021726 | 46 | 318 | 2.0 | 2.0 | 0.00 | 0.00 | 0.00 | 75 | 1013.6 |
| 20260503021223 | 46 | 327 | 0.0 | 1.0 | 0.00 | 0.00 | 0.00 | 74 | 1013.6 |
| 20260503020225 | 47 | 3 | 1.0 | 2.0 | 0.00 | 0.00 | 0.00 | 73 | 1013.8 |
| 20260503015724 | 47 | 43 | 2.0 | 2.0 | 0.00 | 0.00 | 0.00 | 73 | 1013.8 |
| 20260503015222 | 47 | 68 | 0.0 | 2.0 | 0.00 | 0.00 | 0.00 | 73 | 1013.8 |
| 20260503014720 | 47 | 64 | 0.0 | 2.0 | 0.00 | 0.00 | 0.00 | 72 | 1013.9 |
| 20260503014220 | 47 | 39 | 0.0 | 2.0 | 0.00 | 0.00 | 0.00 | 69 | 1013.7 |
| 20260503013721 | 47 | 53 | 0.0 | 2.0 | 0.00 | 0.00 | 0.00 | 67 | 1013.7 |
| 20260503013213 | 48 | 28 | 0.0 | 2.0 | 0.00 | 0.00 | 0.00 | 66 | 1013.8 |
| 20260503012707 | 48 | 30 | 0.0 | 2.0 | 0.00 | 0.00 | 0.00 | 65 | 1013.8 |
| 20260503011708 | 48 | 297 | 0.0 | 2.0 | 0.00 | 0.00 | 0.00 | 65 | 1013.8 |
| 20260503011209 | 48 | 61 | 2.0 | 2.0 | 0.00 | 0.00 | 0.00 | 65 | 1013.7 |
| 20260503010706 | 49 | 12 | 0.0 | 2.0 | 0.00 | 0.00 | 0.00 | 62 | 1013.7 |
| 20260503010206 | 49 | 35 | 1.0 | 2.0 | 0.00 | 0.00 | 0.00 | 62 | 1013.6 |
| 20260503005704 | 49 | 314 | 2.0 | 2.0 | 0.00 | 0.00 | 0.00 | 59 | 1013.7 |
| 20260503003703 | 49 | 5 | 0.0 | 2.0 | 0.00 | 0.00 | 0.00 | 58 | 1013.7 |
| 20260503003150 | 50 | 41 | 0.0 | 2.0 | 0.00 | 0.00 | 0.00 | 57 | 1013.6 |
| 20260503002648 | 50 | 290 | 0.0 | 2.0 | 0.00 | 0.00 | 0.00 | 58 | 1013.7 |
| 20260503001640 | 50 | 228 | 1.0 | 4.0 | 0.00 | 0.00 | 0.00 | 58 | 1013.5 |
| 20260503001137 | 50 | 341 | 0.0 | 4.0 | 0.00 | 0.00 | 0.00 | 58 | 1013.4 |
| 20260503000145 | 50 | 149 | 0.0 | 4.0 | 0.00 | 0.00 | 0.00 | 58 | 1013.5 |
| 20260502235632 | 51 | 193 | 1.0 | 6.0 | 0.00 | 0.00 | 0.00 | 56 | 1013.3 |
| 20260502235132 | 51 | 275 | 2.0 | 6.0 | 0.00 | 0.00 | 0.00 | 53 | 1013.3 |
| 20260502234634 | 51 | 263 | 4.0 | 6.0 | 0.00 | 0.00 | 0.00 | 53 | 1013.3 |
| 20260502234120 | 51 | 225 | 3.0 | 6.0 | 0.00 | 0.00 | 0.00 | 53 | 1013.3 |
| 20260502233620 | 51 | 248 | 3.0 | 10.0 | 0.00 | 0.00 | 0.00 | 53 | 1013.2 |
| 20260502232617 | 52 | 232 | 2.0 | 7.0 | 0.00 | 0.00 | 0.00 | 53 | 1013.1 |
| 20260502232104 | 52 | 258 | 3.0 | 6.0 | 0.00 | 0.00 | 0.00 | 53 | 1013.2 |
| 20260502231059 | 52 | 233 | 4.0 | 7.0 | 0.00 | 0.00 | 0.00 | 54 | 1013.3 |
| 20260502230546 | 52 | 180 | 2.0 | 2.0 | 0.00 | 0.00 | 0.00 | 54 | 1013.3 |
| 20260502225044 | 52 | 246 | 1.0 | 4.0 | 0.00 | 0.00 | 0.00 | 48 | 1013.1 |
| 20260502224543 | 52 | 273 | 1.0 | 6.0 | 0.00 | 0.00 | 0.00 | 47 | 1013.1 |
| 20260502223041 | 53 | 247 | 1.0 | 8.0 | 0.00 | 0.00 | 0.00 | 44 | 1013.1 |
| 20260502222540 | 53 | 268 | 3.0 | 11.0 | 0.00 | 0.00 | 0.00 | 44 | 1013.1 |
| 20260502222040 | 53 | 231 | 7.0 | 11.0 | 0.00 | 0.00 | 0.00 | 41 | 1013.2 |
| 20260502221540 | 53 | 259 | 5.0 | 11.0 | 0.00 | 0.00 | 0.00 | 40 | 1012.9 |
| 20260502221040 | 53 | 282 | 6.0 | 12.0 | 0.00 | 0.00 | 0.00 | 40 | 1013.2 |
| 20260502220541 | 53 | 301 | 11.0 | 12.0 | 0.00 | 0.00 | 0.00 | 37 | 1013.0 |
| 20260502220052 | 54 | 270 | 6.0 | 11.0 | 0.00 | 0.00 | 0.00 | 37 | 1013.1 |
| 20260502215538 | 54 | 298 | 6.0 | 11.0 | 0.00 | 0.00 | 0.00 | 35 | 1012.7 |
| 20260502215036 | 55 | 308 | 6.0 | 11.0 | 0.00 | 0.00 | 0.00 | 33 | 1012.8 |
| 20260502214536 | 55 | 278 | 5.0 | 10.0 | 0.00 | 0.00 | 0.00 | 35 | 1012.8 |
| 20260502213534 | 55 | 255 | 4.0 | 11.0 | 0.00 | 0.00 | 0.00 | 32 | 1012.7 |
| 20260502213033 | 55 | 277 | 6.0 | 9.0 | 0.00 | 0.00 | 0.00 | 31 | 1012.5 |
| 20260502212532 | 56 | 278 | 4.0 | 10.0 | 0.00 | 0.00 | 0.00 | 30 | 1012.4 |
| 20260502212021 | 56 | 289 | 8.0 | 10.0 | 0.00 | 0.00 | 0.00 | 31 | 1012.4 |
| 20260502211519 | 57 | 235 | 7.0 | 18.0 | 0.00 | 0.00 | 0.00 | 29 | 1012.4 |
| 20260502211020 | 57 | 291 | 6.0 | 18.0 | 0.00 | 0.00 | 0.00 | 31 | 1012.5 |
| 20260502210519 | 57 | 269 | 5.0 | 13.0 | 0.00 | 0.00 | 0.00 | 30 | 1012.4 |
| 20260502210018 | 57 | 284 | 7.0 | 13.0 | 0.00 | 0.00 | 0.00 | 30 | 1012.2 |
| 20260502205016 | 57 | 304 | 5.0 | 16.0 | 0.00 | 0.00 | 0.00 | 31 | 1012.3 |
| 20260502204516 | 58 | 266 | 6.0 | 16.0 | 0.00 | 0.00 | 0.00 | 28 | 1012.1 |
| 20260502203510 | 58 | 301 | 10.0 | 18.0 | 0.00 | 0.00 | 0.00 | 29 | 1011.9 |
| 20260502203011 | 59 | 290 | 11.0 | 18.0 | 0.00 | 0.00 | 0.00 | 28 | 1012.0 |
| 20260502202508 | 61 | 271 | 7.0 | 16.0 | 0.00 | 0.00 | 0.00 | 28 | 1011.9 |
| 20260502202008 | 61 | 287 | 7.0 | 14.0 | 0.00 | 0.00 | 0.00 | 29 | 1011.7 |
| 20260502201509 | 61 | 312 | 7.0 | 13.0 | 0.00 | 0.00 | 0.00 | 28 | 1011.7 |
| 20260502201009 | 61 | 288 | 5.0 | 14.0 | 0.00 | 0.00 | 0.00 | 29 | 1011.7 |
| 20260502200507 | 61 | 293 | 11.0 | 14.0 | 0.00 | 0.00 | 0.00 | 31 | 1011.6 |
| 20260502200007 | 61 | 282 | 6.0 | 14.0 | 0.00 | 0.00 | 0.00 | 28 | 1011.5 |
| 20260502194955 | 62 | 259 | 6.0 | 13.0 | 0.00 | 0.00 | 0.00 | 29 | 1011.7 |
| 20260502194455 | 62 | 258 | 5.0 | 13.0 | 0.00 | 0.00 | 0.00 | 28 | 1011.7 |
| 20260502193955 | 62 | 302 | 7.0 | 18.0 | 0.00 | 0.00 | 0.00 | 27 | 1011.8 |
| 20260502193454 | 61 | 303 | 4.0 | 18.0 | 0.00 | 0.00 | 0.00 | 29 | 1011.9 |
| 20260502192952 | 62 | 303 | 17.0 | 18.0 | 0.00 | 0.00 | 0.00 | 28 | 1011.6 |
| 20260502192504 | 62 | 302 | 10.0 | 15.0 | 0.00 | 0.00 | 0.00 | 29 | 1012.0 |
| 20260502191950 | 61 | 282 | 4.0 | 15.0 | 0.00 | 0.00 | 0.00 | 31 | 1012.0 |
| 20260502191449 | 62 | 301 | 10.0 | 15.0 | 0.00 | 0.00 | 0.00 | 27 | 1011.9 |
| 20260502190946 | 61 | 303 | 13.0 | 17.0 | 0.00 | 0.00 | 0.00 | 27 | 1012.1 |
| 20260502190444 | 61 | 277 | 8.0 | 17.0 | 0.00 | 0.00 | 0.00 | 31 | 1012.0 |
| 20260502185943 | 61 | 275 | 9.0 | 15.0 | 0.00 | 0.00 | 0.00 | 26 | 1012.0 |
| 20260502184942 | 61 | 289 | 9.0 | 17.0 | 0.00 | 0.00 | 0.00 | 27 | 1011.9 |
| 20260502184441 | 61 | 288 | 8.0 | 17.0 | 0.00 | 0.00 | 0.00 | 27 | 1011.9 |
| 20260502183938 | 61 | 305 | 13.0 | 16.0 | 0.00 | 0.00 | 0.00 | 27 | 1012.1 |
| 20260502183432 | 62 | 305 | 10.0 | 12.0 | 0.00 | 0.00 | 0.00 | 34 | 1011.9 |
| 20260502182417 | 62 | 306 | 2.0 | 10.0 | 0.00 | 0.00 | 0.00 | 27 | 1012.0 |
| 20260502181915 | 62 | 262 | 9.0 | 10.0 | 0.00 | 0.00 | 0.00 | 29 | 1011.9 |
| 20260502181410 | 62 | 279 | 6.0 | 10.0 | 0.00 | 0.00 | 0.00 | 28 | 1011.8 |
| 20260502180911 | 62 | 274 | 4.0 | 11.0 | 0.00 | 0.00 | 0.00 | 28 | 1011.8 |
| 20260502170354 | 61 | 308 | 7.0 | 11.0 | 0.00 | 0.00 | 0.00 | 26 | 1012.5 |
| 20260502164345 | 61 | 252 | 3.0 | 9.0 | 0.00 | 0.00 | 0.00 | 26 | 1012.6 |
| 20260502163844 | 60 | 290 | 5.0 | 8.0 | 0.00 | 0.00 | 0.00 | 28 | 1012.7 |
| 20260502163344 | 60 | 300 | 6.0 | 6.0 | 0.00 | 0.00 | 0.00 | 26 | 1012.4 |
| 20260502162843 | 60 | 290 | 2.0 | 9.0 | 0.00 | 0.00 | 0.00 | 27 | 1012.5 |
| 20260502162344 | 60 | 304 | 3.0 | 9.0 | 0.00 | 0.00 | 0.00 | 25 | 1012.5 |
| 20260502161843 | 59 | 294 | 0.0 | 12.0 | 0.00 | 0.00 | 0.00 | 23 | 1012.6 |
| 20260502161343 | 58 | 352 | 2.0 | 12.0 | 0.00 | 0.00 | 0.00 | 27 | 1012.5 |
| 20260502160842 | 58 | 296 | 4.0 | 11.0 | 0.00 | 0.00 | 0.00 | 29 | 1012.7 |
| 20260502160341 | 58 | 274 | 3.0 | 10.0 | 0.00 | 0.00 | 0.00 | 26 | 1012.8 |
| 20260502151334 | 56 | 188 | 3.0 | 9.0 | 0.00 | 0.00 | 0.00 | 39 | 1013.1 |
| 20260502150833 | 56 | 305 | 6.0 | 9.0 | 0.00 | 0.00 | 0.00 | 37 | 1013.2 |
| 20260502150333 | 55 | 272 | 4.0 | 9.0 | 0.00 | 0.00 | 0.00 | 48 | 1013.3 |
| 20260502130737 | 50 | 304 | 9.0 | 11.0 | 0.00 | 0.00 | 0.00 | 50 | 1012.8 |
| 20260502130236 | 50 | 222 | 4.0 | 8.0 | 0.00 | 0.00 | 0.00 | 52 | 1012.6 |
| 20260502123729 | 48 | 306 | 7.0 | 11.0 | 0.00 | 0.00 | 0.00 | 56 | 1012.9 |
| 20260502123228 | 48 | 278 | 6.0 | 11.0 | 0.00 | 0.00 | 0.00 | 57 | 1012.8 |
| 20260502122725 | 48 | 303 | 5.0 | 11.0 | 0.00 | 0.00 | 0.00 | 58 | 1013.0 |
| 20260502122219 | 47 | 284 | 6.0 | 15.0 | 0.00 | 0.00 | 0.00 | 60 | 1013.0 |
| 20260502121719 | 47 | 303 | 9.0 | 15.0 | 0.00 | 0.00 | 0.00 | 59 | 1013.0 |
| 20260502121217 | 47 | 299 | 5.0 | 11.0 | 0.00 | 0.00 | 0.00 | 61 | 1012.7 |
| 20260502120716 | 47 | 299 | 7.0 | 11.0 | 0.00 | 0.00 | 0.00 | 61 | 1012.9 |
| 20260502120219 | 46 | 313 | 4.0 | 11.0 | 0.00 | 0.00 | 0.00 | 62 | 1012.8 |
| 20260502115211 | 46 | 307 | 6.0 | 9.0 | 0.00 | 0.00 | 0.00 | 65 | 1012.8 |
| 20260502114710 | 46 | 305 | 9.0 | 9.0 | 0.00 | 0.00 | 0.00 | 64 | 1012.6 |
| 20260502114207 | 46 | 302 | 8.0 | 9.0 | 0.00 | 0.00 | 0.00 | 64 | 1012.6 |
| 20260502113701 | 46 | 293 | 5.0 | 10.0 | 0.00 | 0.00 | 0.00 | 66 | 1012.7 |
| 20260502113201 | 45 | 302 | 7.0 | 13.0 | 0.00 | 0.00 | 0.00 | 65 | 1012.5 |
| 20260502112657 | 45 | 301 | 4.0 | 13.0 | 0.00 | 0.00 | 0.00 | 67 | 1012.5 |
| 20260502112154 | 45 | 299 | 5.0 | 12.0 | 0.00 | 0.00 | 0.00 | 67 | 1012.5 |
| 20260502111652 | 45 | 306 | 7.0 | 12.0 | 0.00 | 0.00 | 0.00 | 69 | 1012.5 |
| 20260502111151 | 44 | 263 | 5.0 | 10.0 | 0.00 | 0.00 | 0.00 | 68 | 1012.7 |
| 20260502110138 | 44 | 248 | 4.0 | 11.0 | 0.00 | 0.00 | 0.00 | 70 | 1012.3 |
| 20260502105139 | 44 | 285 | 3.0 | 7.0 | 0.00 | 0.00 | 0.00 | 73 | 1012.2 |
| 20260502104637 | 43 | 230 | 2.0 | 7.0 | 0.00 | 0.00 | 0.00 | 74 | 1012.3 |
| 20260502104137 | 43 | 272 | 5.0 | 7.0 | 0.00 | 0.00 | 0.00 | 74 | 1012.0 |
| 20260502103136 | 42 | 317 | 3.0 | 6.0 | 0.00 | 0.00 | 0.00 | 77 | 1011.9 |
| 20260502102635 | 42 | 263 | 5.0 | 6.0 | 0.00 | 0.00 | 0.00 | 77 | 1012.0 |
| 20260502102124 | 42 | 282 | 4.0 | 6.0 | 0.00 | 0.00 | 0.00 | 78 | 1011.9 |
| 20260502100620 | 41 | 257 | 3.0 | 6.0 | 0.00 | 0.00 | 0.00 | 80 | 1011.8 |
| 20260502100119 | 41 | 272 | 4.0 | 6.0 | 0.00 | 0.00 | 0.00 | 80 | 1011.6 |
| 20260502091131 | 40 | 269 | 2.0 | 5.0 | 0.00 | 0.00 | 0.00 | 83 | 1011.2 |
| 20260502090618 | 40 | 256 | 3.0 | 8.0 | 0.00 | 0.00 | 0.00 | 83 | 1011.2 |
| 20260502090119 | 40 | 270 | 3.0 | 9.0 | 0.00 | 0.00 | 0.00 | 84 | 1011.0 |
| 20260502080110 | 40 | 214 | 2.0 | 4.0 | 0.00 | 0.01 | 0.00 | 87 | 1010.3 |
| 20260502070606 | 42 | 256 | 3.0 | 5.0 | 0.00 | 0.02 | 0.00 | 86 | 1009.6 |
| 20260502070107 | 42 | 222 | 2.0 | 7.0 | 0.00 | 0.02 | 0.00 | 85 | 1009.7 |
| 20260502065105 | 42 | 247 | 2.0 | 6.0 | 0.00 | 0.03 | 0.00 | 85 | 1009.6 |
| 20260502064605 | 42 | 280 | 2.0 | 6.0 | 0.00 | 0.03 | 0.00 | 83 | 1009.6 |
| 20260502064105 | 43 | 233 | 3.0 | 6.0 | 0.00 | 0.03 | 0.00 | 84 | 1009.6 |
| 20260502063604 | 43 | 242 | 4.0 | 5.0 | 0.00 | 0.03 | 0.00 | 84 | 1009.4 |
| 20260502063117 | 43 | 279 | 1.0 | 6.0 | 0.00 | 0.03 | 0.00 | 83 | 1009.4 |
| 20260502062604 | 43 | 258 | 2.0 | 7.0 | 0.00 | 0.05 | 0.00 | 83 | 1009.3 |
| 20260502061116 | 44 | 232 | 3.0 | 8.0 | 0.00 | 0.18 | 0.00 | 83 | 1009.0 |
| 20260502060100 | 44 | 250 | 3.0 | 8.0 | 0.00 | 0.23 | 0.00 | 83 | 1009.0 |
| 20260502055558 | 44 | 243 | 4.0 | 7.0 | 0.00 | 0.23 | 0.00 | 83 | 1009.0 |
| 20260502055055 | 44 | 232 | 4.0 | 7.0 | 0.00 | 0.23 | 0.00 | 84 | 1008.9 |
| 20260502054054 | 44 | 288 | 4.0 | 11.0 | 0.00 | 0.24 | 0.00 | 85 | 1008.8 |
| 20260502053552 | 44 | 259 | 4.0 | 9.0 | 0.00 | 0.25 | 0.00 | 86 | 1008.9 |
| 20260502052548 | 44 | 233 | 4.0 | 5.0 | 0.00 | 0.26 | 0.00 | 86 | 1008.8 |
| 20260502051548 | 44 | 258 | 4.0 | 6.0 | 0.00 | 0.26 | 0.00 | 87 | 1008.8 |
| 20260502051102 | 44 | 265 | 2.0 | 5.0 | 0.00 | 0.26 | 0.00 | 87 | 1008.9 |
| 20260502050601 | 45 | 277 | 4.0 | 6.0 | 0.00 | 0.26 | 0.00 | 86 | 1008.7 |
| 20260502050100 | 45 | 236 | 3.0 | 6.0 | 0.00 | 0.26 | 0.00 | 87 | 1008.6 |
| 20260502045547 | 45 | 239 | 4.0 | 5.0 | 0.00 | 0.26 | 0.00 | 86 | 1008.6 |
| 20260502044548 | 45 | 264 | 1.0 | 5.0 | 0.00 | 0.26 | 0.00 | 86 | 1008.5 |
| 20260502044046 | 46 | 208 | 4.0 | 8.0 | 0.00 | 0.27 | 0.00 | 85 | 1008.5 |
| 20260502043044 | 46 | 224 | 4.0 | 8.0 | 0.00 | 0.28 | 0.00 | 85 | 1008.4 |
| 20260502042544 | 46 | 231 | 3.0 | 7.0 | 0.00 | 0.31 | 0.00 | 85 | 1008.4 |
| 20260502042055 | 46 | 228 | 2.0 | 7.0 | 0.00 | 0.34 | 0.00 | 85 | 1008.3 |
| 20260502041542 | 47 | 264 | 2.0 | 6.0 | 0.00 | 0.34 | 0.00 | 84 | 1008.2 |
| 20260502041042 | 47 | 230 | 1.0 | 9.0 | 0.00 | 0.34 | 0.00 | 83 | 1008.1 |
| 20260502040541 | 47 | 250 | 4.0 | 12.0 | 0.00 | 0.34 | 0.00 | 82 | 1008.2 |
| 20260502035036 | 47 | 251 | 3.0 | 6.0 | 0.00 | 0.34 | 0.00 | 83 | 1008.0 |
| 20260502034536 | 47 | 220 | 2.0 | 6.0 | 0.00 | 0.34 | 0.00 | 83 | 1007.7 |
| 20260502034035 | 47 | 251 | 4.0 | 5.0 | 0.00 | 0.34 | 0.00 | 83 | 1008.0 |
| 20260502033534 | 47 | 248 | 4.0 | 5.0 | 0.00 | 0.34 | 0.00 | 83 | 1008.0 |